Location: Rounton
(54.4000°N, 1.3500°W)
Time: 18:13:26
(UTC+00:00)

COSMOS 2251 DEB - Visible Passes

Search period start: 28 November 2022 00:00
Search period end: 08 December 2022 00:00
Orbit: 736 x 848 km, 74.1° (Epoch: 27 November)

Date Brightness Start Highest point End Pass type
(mag) Time Alt. Az. Time Alt. Az. Time Alt. Az.
28 Nov ? 16:29:38 10° WSW 16:34:59 42° NW 16:40:20 10° NNE visible
28 Nov ? 18:15:59 10° WNW 18:19:10 15° NNW 18:22:20 10° N visible
29 Nov ? 17:45:12 10° WNW 17:48:56 18° NNW 17:52:37 10° N visible
30 Nov ? 17:14:33 10° W 17:18:44 21° NW 17:22:53 10° NNE visible
30 Nov ? 19:03:11 10° NNW 19:03:41 10° N 19:04:12 10° N visible
01 Dec ? 16:43:59 10° W 16:48:35 25° NW 16:53:09 10° NNE visible
01 Dec ? 18:31:50 10° NNW 18:33:20 11° NNW 18:34:49 10° N visible
02 Dec ? 18:00:47 10° NW 18:03:00 12° NNW 18:05:13 10° N visible
03 Dec ? 17:29:51 10° NW 17:32:42 14° NNW 17:35:32 10° N visible
04 Dec ? 16:59:02 10° WNW 17:02:27 16° NNW 17:05:49 10° N visible
05 Dec ? 16:28:18 10° W 16:32:14 19° NW 16:36:07 10° N visible
06 Dec ? 17:46:02 10° NNW 17:46:54 10° NNW 17:47:45 10° N visible
07 Dec ? 17:14:47 10° NW 17:16:33 11° NNW 17:18:17 10° N visible
